TimeEDT,TemperatureF,Dew PointF,Humidity,Sea Level PressureIn,VisibilityMPH,Wind Direction,Wind SpeedMPH,Gust SpeedMPH,PrecipitationIn,Events,Conditions,WindDirDegrees,DateUTC
12:51 AM,61.0,48.0,62,30.01,10.0,SSW,4.6,-,N/A,,Clear,210,2012-10-26 04:51:00
1:51 AM,62.1,46.9,58,30.01,10.0,SSW,3.5,-,N/A,,Clear,200,2012-10-26 05:51:00
2:51 AM,61.0,46.9,60,30.01,10.0,SSE,4.6,-,N/A,,Clear,160,2012-10-26 06:51:00
3:51 AM,60.1,46.9,62,30.01,10.0,SSW,4.6,-,N/A,,Clear,210,2012-10-26 07:51:00
4:51 AM,57.0,48.0,72,30.01,10.0,Calm,Calm,-,N/A,,Clear,0,2012-10-26 08:51:00
5:51 AM,55.9,48.0,75,30.03,10.0,Calm,Calm,-,N/A,,Clear,0,2012-10-26 09:51:00
6:51 AM,54.0,48.0,80,30.04,10.0,Calm,Calm,-,N/A,,Overcast,0,2012-10-26 10:51:00
7:51 AM,54.0,48.9,83,30.06,10.0,East,3.5,-,N/A,,Mostly Cloudy,100,2012-10-26 11:51:00
8:51 AM,57.9,50.0,75,30.07,10.0,Calm,Calm,-,N/A,,Scattered Clouds,0,2012-10-26 12:51:00
9:51 AM,63.0,52.0,67,30.08,9.0,Calm,Calm,-,N/A,,Mostly Cloudy,0,2012-10-26 13:51:00
10:51 AM,66.9,53.1,61,30.08,9.0,Calm,Calm,-,N/A,,Overcast,0,2012-10-26 14:51:00
11:51 AM,73.0,54.0,51,30.08,10.0,Calm,Calm,-,N/A,,Mostly Cloudy,0,2012-10-26 15:51:00
12:51 PM,75.0,55.0,50,30.05,10.0,WNW,6.9,-,N/A,,Clear,290,2012-10-26 16:51:00
1:51 PM,77.0,54.0,45,30.01,10.0,NW,3.5,-,N/A,,Partly Cloudy,320,2012-10-26 17:51:00
2:51 PM,75.9,54.0,46,29.98,10.0,WSW,4.6,-,N/A,,Mostly Cloudy,250,2012-10-26 18:51:00
3:51 PM,75.9,54.0,46,29.96,10.0,Calm,Calm,-,N/A,,Mostly Cloudy,0,2012-10-26 19:51:00
4:51 PM,75.0,54.0,48,29.96,10.0,West,4.6,-,N/A,,Overcast,280,2012-10-26 20:51:00
5:51 PM,69.1,54.0,58,29.97,10.0,NNW,12.7,21.9,N/A,,Overcast,330,2012-10-26 21:51:00
6:51 PM,64.0,52.0,65,30.00,10.0,NNW,11.5,-,N/A,,Mostly Cloudy,330,2012-10-26 22:51:00
7:51 PM,59.0,48.0,67,30.03,10.0,NW,9.2,-,N/A,,Mostly Cloudy,320,2012-10-26 23:51:00
8:51 PM,54.0,46.0,75,30.04,10.0,NNW,11.5,17.3,N/A,,Mostly Cloudy,340,2012-10-27 00:51:00
9:51 PM,52.0,46.0,80,30.03,10.0,NNW,6.9,-,N/A,,Partly Cloudy,340,2012-10-27 01:51:00
10:23 PM,51.8,46.4,82,30.03,10.0,NNW,5.8,-,N/A,,Mostly Cloudy,340,2012-10-27 02:23:00
10:51 PM,52.0,46.9,83,30.01,10.0,NNW,4.6,-,N/A,,Overcast,340,2012-10-27 02:51:00
11:51 PM,52.0,46.9,83,30.01,10.0,NW,5.8,-,N/A,,Overcast,320,2012-10-27 03:51:00